Regional & State Weather Roundups


047 
ASUS44 KLIX 220612
RWRLIX
NEW ORLEANS REGIONAL WEATHER ROUNDUP
NATIONAL WEATHER SERVICE NEW ORLEANS LA
1200 AM CST THU FEB 22 2018
NOTE: "FAIR" INDICATES FEW OR NO CLOUDS BELOW 12,000 FEET WITH NO
      SIGNIFICANT WEATHER AND/OR OBSTRUCTIONS TO VISIBILITY.
      SKY/WX - SKY CONDITION AND SIGNIFICANT WEATHER.
      TMP - AIR TEMPERATURE.     DP    - DEWPOINT TEMPERATURE.
      RH  - RELATIVE HUMIDITY.   PRES  - PRESSURE.
      HI  - HEAT INDEX.          WCI   - WIND CHILL INDEX.
*  THESE STATIONS ARE NOT NWS OR FAA STATIONS AND ARE NOT UNDER
   NWS QUALITY CONTROL. 
LAZ038-040-048-061>063-065>067-069-220700-
SOUTHEAST LOUISIANA
  
CITY           SKY/WX    TMP DP  RH WIND       PRES   REMARKS
N.O. INTL ARPT MOCLDY    74  74 100 SE8       30.25R                  
6HR MIN TEMP:  74; 6HR MAX TEMP:  78;                                
N.O. LAKEFRONT CLOUDY    74  72  93 SE13      30.26R FOG              
6HR MIN TEMP:  74; 6HR MAX TEMP:  78;                                
N.O. DOWNTOWN* CLOUDY    73  72  94 VRB6      30.26S                  
RESERVE*       CLOUDY    75  72  88 S6        30.24S FOG              
6HR MIN TEMP:  75; 6HR MAX TEMP:  79;                                
SLIDELL        CLOUDY    73  71  93 SE10      30.26R                  
6HR MIN TEMP:  73; 6HR MAX TEMP:  77;                                
BATON ROUGE    CLOUDY    74  70  87 S13       30.22S                  
6HR MIN TEMP:  74; 6HR MAX TEMP:  78;                                
BOOTHVILLE     FOG       68  67  96 E3        30.28S VSB 1/2          
6HR MIN TEMP:  68; 6HR MAX TEMP:  77;                                
BELLE CHASSE   CLOUDY    73  73 100 SE10      30.25S                  
6HR MIN TEMP:  73; 6HR MAX TEMP:  77;                                
BOGALUSA*      CLOUDY    76  70  81 S12       30.27R                  
6HR MIN TEMP:  76; 6HR MAX TEMP:  79;                                
GALLIANO*      MOCLDY    74  70  87 SE6       30.25S                  
6HR MIN TEMP:  74; 6HR MAX TEMP:  77;                                
NEW ROADS*     MOCLDY    73  68  86 S8        30.21F                  
6HR MIN TEMP:  73; 6HR MAX TEMP:  77;                                
GONZALES*      CLOUDY    74  71  91 S6        30.22F                  
6HR MIN TEMP:  74; 6HR MAX TEMP:  78;                                
HAMMOND*       CLOUDY    72  72 100 S9        30.25S FOG              
HOUMA*         CLOUDY    75  73  93 SE9       30.24S FOG              
6HR MIN TEMP:  74; 6HR MAX TEMP:  77;                                
PORT FOURCHON* PTCLDY    75  73  94 SE10      30.25F FOG              
$$
MSZ070-080>082-220700-
SOUTHERN MISSISSIPPI
  
CITY           SKY/WX    TMP DP  RH WIND       PRES   REMARKS
MCCOMB         CLOUDY    73  69  87 S12       30.24S                  
6HR MIN TEMP:  71; 6HR MAX TEMP:  77;                                
GULFPORT       FOG       72  72 100 SE13      30.27S VSB 1/2          
6HR MIN TEMP:  72; 6HR MAX TEMP:  73;                                
BILOXI         CLOUDY    72  71  97 SE13G20   30.28S FOG              
6HR MIN TEMP:  72; 6HR MAX TEMP:  73;                                
PASCAGOULA     CLOUDY    73  70  90 SE14      30.30S                  
6HR MIN TEMP:  73; 6HR MAX TEMP:  75;                                
$$
COASTAL OBSERVATIONS
LAKE AND NEARSHORE STATIONS
  
STATION/POSITION TIME  SKY/WX   TEMP    WIND        PRES    WAVE
                                AIR SEA DIR/SP/G            HT/PER
                 (UTC)          (F)     (DEG/KT/KT) (MB)    (FT/S)
WAVELAND YACHT   0548                   150/ 12/ 15 1025.3
GRAND ISLE       0536               73  150/  4/  7 1024.9
SOUTHWEST PASS   0536               50  150/  8/ 11 1025.6
NEW CANAL        0548                   140/  3/  5 1024.3
SHELL BEACH      0548                   140/ 10/ 14 1024.9
OFFSHORE STATIONS
  
STATION/POSITION TIME  SKY/WX   TEMP    WIND        PRES    WAVE
                                AIR SEA DIR/SP/G            HT/PER
                 (UTC)          (F)     (DEG/KT/KT) (MB)    (FT/S)
64 S DAUPHIN ISL 0550               75  130/ 12/ 16 1026.0    6/ 8
$$